This is the latest recevied weather packets stored in our database for station/object K4CRS-13. If no packets are shown the sender has not sent any weather packets the latest 10 day(s).
| Time | Temp. | Humidity | Pressure | Rain* | Wind** | Luminosity | Snow |
|---|---|---|---|---|---|---|---|
| 1777589891 | 16.67° C | 59% | 1048.6 hPa | 0 mm | - | 73 W/m² | - |
| 1777589587 | 16.67° C | 59% | 1048.4 hPa | 0 mm | - | 79 W/m² | - |
| 1777589285 | 16.67° C | 56% | 1048.6 hPa | 0 mm | - | 91 W/m² | - |
| 1777588983 | 17.22° C | 57% | 1048.8 hPa | 0 mm | - | 104 W/m² | - |
| 1777588678 | 17.22° C | 57% | 1048.6 hPa | 0 mm | - | 118 W/m² | - |
| 1777588374 | 17.22° C | 57% | 1048.7 hPa | 0 mm | - | 122 W/m² | - |
| 1777588070 | 17.22° C | 57% | 1048.7 hPa | 0 mm | - | 127 W/m² | - |
| 1777587766 | 17.22° C | 58% | 1048.4 hPa | 0 mm | - | 143 W/m² | - |
| 1777587464 | 17.22° C | 57% | 1048.6 hPa | 0 mm | - | 154 W/m² | - |
| 1777587162 | 17.78° C | 56% | 1048.6 hPa | 0 mm | - | 162 W/m² | - |
| 1777586857 | 17.78° C | 54% | 1048.8 hPa | 0 mm | - | 180 W/m² | - |
| 1777586553 | 17.78° C | 53% | 1048.8 hPa | 0 mm | - | 233 W/m² | - |
| 1777586249 | 17.78° C | 54% | 1048.9 hPa | 0 mm | - | 225 W/m² | - |
| 1777585946 | 17.78° C | 53% | 1048.8 hPa | 0 mm | - | 236 W/m² | - |
| 1777585642 | 18.33° C | 56% | 1048.7 hPa | 0 mm | - | 278 W/m² | - |
| 1777585337 | 18.33° C | 54% | 1048.7 hPa | 0 mm | - | 278 W/m² | - |
| 1777585032 | 18.33° C | 55% | 1048.4 hPa | 0 mm | - | 359 W/m² | - |
| 1777584728 | 18.33° C | 52% | 1048.6 hPa | 0 mm | - | 353 W/m² | - |
| 1777584427 | 18.33° C | 55% | 1048.6 hPa | 0 mm | - | 386 W/m² | - |
| 1777584123 | 17.78° C | 54% | 1048.3 hPa | 0 mm | - | 287 W/m² | - |
| 1777583822 | 18.33° C | 54% | 1048.8 hPa | 0 mm | - | 337 W/m² | - |
| 1777583518 | 17.78° C | 54% | 1048.8 hPa | 0 mm | - | 284 W/m² | - |
| 1777583217 | 17.78° C | 54% | 1048.8 hPa | 0 mm | - | 267 W/m² | - |
| 1777582912 | 18.33° C | 54% | 1049 hPa | 0 mm | - | 272 W/m² | - |
| 1777582611 | 18.33° C | 52% | 1048.7 hPa | 0 mm | - | 282 W/m² | - |
* Rain latest hour (hover to see other rain measurements)
** Current wind speed in m/s (hover to see current wind gust speed)